Weather History for Savanna, IL

Change the Weather History Date:

Thursday, January 16, 2014

  Actual Average (KCWI) Record (KCWI)
Temperature  
Mean Temperature 24 °F -  
Max Temperature 35 °F 29 °F 55 °F (1973)
Min Temperature 11 °F 10 °F -31 °F (2009)
Degree Days  
Heating Degree Days 42    
Moisture  
Dew Point 18 °F    
Average Humidity 74    
Maximum Humidity 92    
Minimum Humidity 55    
Precipitation  
Precipitation 0.00 in - - ()
Sea Level Pressure  
Sea Level Pressure 29.61 in    
Wind  
Wind Speed 13 mph (WSW)    
Max Wind Speed 26 mph    
Max Gust Speed 37 mph    
Visibility 9 miles    
Events Rain , Snow    
Averages and records for this station are not official NWS values.
T = Trace of Precipitation, MM = Missing Value Source: NWS Daily Summary

Daily Weather History Graph

Daily Weather History Graph

Search for Another Location

Airport:

Trip Planner

Search our weather history database for the weather conditions in past years. The results will help you decide how hot, cold, wet, or windy it might be!

Date:

Astronomy

Jan. 16, 2014 Rise Set
Actual Time 7:25 AM CST 4:55 PM CST
Civil Twilight 6:54 AM CST 5:26 PM CST
Nautical Twilight 6:20 AM CST 6:00 PM CST
Astronomical Twilight 5:46 AM CST 6:33 PM CST
Moon 5:48 PM CST (1/16) 7:17 AM CST (1/16)
Length of Visible Light 10h 31m
Length of Day
9h 29m
Full, 100% of the Moon is Illuminated
Jan 16
Full
Jan 23
Last Quarter
Jan 30
New
Feb 6
First Quarter
Feb 14
Full

Hourly Weather History & Observations

Time (CST) Temp. Windchill Dew Point Humidity Pressure Visibility Wind Dir Wind Speed Gust Speed Precip Events Conditions
12:15 AM 23.9 °F 10.8 °F 17.2 °F 76% 29.72 in 10.0 mi South 16.1 mph - N/A   Overcast
12:35 AM 24.3 °F 9.6 °F 17.2 °F 75% 29.67 in 10.0 mi South 20.7 mph 24.2 mph N/A   Overcast
12:55 AM 24.6 °F 13.2 °F 16.5 °F 71% 29.70 in 10.0 mi South 12.7 mph - N/A   Mostly Cloudy
1:15 AM 24.8 °F 14.0 °F 16.7 °F 71% 29.70 in 10.0 mi South 11.5 mph - N/A   Overcast
1:35 AM 25.2 °F 14.4 °F 17.1 °F 71% 29.67 in 10.0 mi South 11.5 mph - N/A   Mostly Cloudy
1:55 AM 25.3 °F 16.0 °F 17.6 °F 72% 29.67 in 10.0 mi South 9.2 mph - N/A   Scattered Clouds
2:15 AM 25.7 °F 15.7 °F 17.8 °F 72% 29.66 in 10.0 mi South 10.4 mph - N/A   Scattered Clouds
2:35 AM 26.2 °F 15.8 °F 18.3 °F 72% 29.64 in 10.0 mi South 11.5 mph 17.3 mph N/A   Scattered Clouds
2:55 AM 26.4 °F 16.0 °F 19.0 °F 74% 29.63 in 10.0 mi South 11.5 mph - N/A   Clear
3:15 AM 27.0 °F 15.6 °F 19.9 °F 75% 29.63 in 10.0 mi South 13.8 mph - N/A   Mostly Cloudy
3:35 AM 27.3 °F 16.6 °F 20.5 °F 75% 29.61 in 10.0 mi South 12.7 mph - N/A   Overcast
3:55 AM 27.5 °F 16.8 °F 21.0 °F 77% 29.61 in 10.0 mi South 12.7 mph - N/A   Overcast
4:15 AM 27.5 °F 17.4 °F 21.2 °F 77% 29.59 in 10.0 mi South 11.5 mph 16.1 mph N/A   Overcast
4:35 AM 27.5 °F 18.6 °F 21.4 °F 78% 29.59 in 10.0 mi SSW 9.2 mph - N/A   Overcast
4:55 AM 27.0 °F 16.1 °F 21.2 °F 79% 29.57 in 10.0 mi South 12.7 mph - N/A   Scattered Clouds
5:15 AM 26.6 °F 16.8 °F 21.2 °F 80% 29.57 in 10.0 mi South 10.4 mph - N/A   Clear
5:35 AM 26.4 °F 17.3 °F 21.6 °F 82% 29.56 in 10.0 mi South 9.2 mph - N/A   Clear
5:55 AM 26.2 °F 17.1 °F 21.4 °F 82% 29.55 in 10.0 mi South 9.2 mph - N/A   Clear
6:15 AM 26.6 °F 19.1 °F 22.1 °F 83% 29.55 in 10.0 mi South 6.9 mph - N/A   Mostly Cloudy
6:35 AM 27.1 °F 20.7 °F 22.3 °F 82% 29.55 in 10.0 mi SSE 5.8 mph - N/A   Overcast
6:55 AM 26.6 °F 20.0 °F 22.5 °F 84% 29.54 in 10.0 mi SSE 5.8 mph - N/A   Overcast
7:15 AM 27.1 °F 20.7 °F 22.8 °F 84% 29.54 in 10.0 mi SSE 5.8 mph - N/A   Overcast
7:35 AM 27.1 °F 18.9 °F 22.8 °F 84% 29.53 in 10.0 mi South 8.1 mph - N/A   Overcast
7:55 AM 28.4 °F 20.4 °F 23.7 °F 83% 29.53 in 10.0 mi South 8.1 mph - N/A   Overcast
8:15 AM 29.3 °F 21.5 °F 23.9 °F 80% 29.54 in 10.0 mi South 8.1 mph - N/A   Overcast
8:35 AM 29.7 °F 22.0 °F 24.4 °F 81% 29.53 in 10.0 mi South 8.1 mph - N/A   Overcast
8:55 AM 30.4 °F 23.6 °F 25.0 °F 80% 29.53 in 10.0 mi South 6.9 mph - N/A   Overcast
9:15 AM 31.6 °F 27.0 °F 25.7 °F 79% 29.53 in 10.0 mi South 4.6 mph - N/A   Overcast
9:35 AM 32.2 °F 26.7 °F 26.1 °F 78% 29.52 in 10.0 mi SSW 5.8 mph - N/A   Overcast
9:55 AM 33.1 °F 26.9 °F 26.4 °F 77% 29.52 in 5.0 mi SW 6.9 mph - N/A Snow Light Snow
10:15 AM 32.7 °F 25.7 °F 28.2 °F 83% 29.52 in 1.5 mi SW 8.1 mph - N/A Snow Light Snow
10:35 AM 32.9 °F 25.3 °F 30.7 °F 92% 29.51 in 0.8 mi WSW 9.2 mph - N/A Snow Light Snow
10:55 AM 34.0 °F 25.5 °F 31.6 °F 91% 29.51 in 4.0 mi WSW 11.5 mph 16.1 mph N/A Snow Light Snow
11:15 AM 35.1 °F 27.4 °F 31.3 °F 86% 29.50 in 10.0 mi WSW 10.4 mph 17.3 mph N/A Snow Light Snow
11:35 AM 35.2 °F 26.2 °F 31.6 °F 87% 29.49 in 7.0 mi WSW 13.8 mph 20.7 mph N/A Snow Light Snow
11:55 AM 35.6 °F 26.6 °F 32.0 °F 87% 29.48 in 10.0 mi WSW 13.8 mph - N/A   Mostly Cloudy
12:15 PM 35.6 °F 27.1 °F 32.0 °F 87% 29.47 in 7.0 mi WSW 12.7 mph 20.7 mph N/A Rain Light Rain
12:35 PM 35.2 °F 26.2 °F 32.0 °F 88% 29.47 in 10.0 mi WSW 13.8 mph - N/A Rain Light Rain
12:55 PM 34.9 °F 26.2 °F 32.0 °F 89% 29.47 in 4.0 mi WSW 12.7 mph 20.7 mph N/A Snow Light Snow
1:15 PM 34.7 °F 24.3 °F 31.3 °F 87% 29.48 in 7.0 mi West 17.3 mph 24.2 mph N/A Rain Light Rain
1:35 PM 32.9 °F 21.3 °F 27.9 °F 82% 29.49 in 4.0 mi West 19.6 mph 31.1 mph N/A Snow Light Snow
1:55 PM 32.4 °F 20.6 °F 26.2 °F 78% 29.50 in 10.0 mi WNW 19.6 mph 31.1 mph N/A   Overcast
2:35 PM 32.0 °F 20.1 °F 21.2 °F 64% 29.53 in 10.0 mi West 19.6 mph 27.6 mph N/A   Overcast
2:55 PM 32.0 °F 19.2 °F 20.5 °F 63% 29.55 in 10.0 mi West 23.0 mph 31.1 mph N/A   Overcast
3:15 PM 30.0 °F 17.2 °F 18.5 °F 62% 29.57 in 10.0 mi West 20.7 mph 33.4 mph N/A   Overcast
3:35 PM 29.3 °F 14.7 °F 16.5 °F 59% 29.58 in 10.0 mi West 26.5 mph 36.8 mph N/A   Overcast
3:55 PM 28.4 °F 15.4 °F 14.5 °F 56% 29.59 in 10.0 mi West 19.6 mph 33.4 mph N/A   Scattered Clouds
4:15 PM 28.0 °F 14.9 °F 13.6 °F 55% 29.60 in 10.0 mi WNW 19.6 mph 29.9 mph N/A   Clear
4:35 PM 26.8 °F 14.1 °F 12.9 °F 56% 29.61 in 10.0 mi West 17.3 mph 27.6 mph N/A   Clear
4:55 PM 26.2 °F 13.8 °F 13.3 °F 58% 29.62 in 10.0 mi WNW 16.1 mph 28.8 mph N/A   Clear
5:15 PM 25.7 °F 11.5 °F 12.6 °F 58% 29.63 in 10.0 mi WNW 20.7 mph 31.1 mph N/A   Clear
5:35 PM 25.5 °F 13.3 °F 12.2 °F 57% 29.65 in 10.0 mi WNW 15.0 mph 25.3 mph N/A   Scattered Clouds
5:55 PM 25.2 °F 12.9 °F 12.2 °F 58% 29.65 in 10.0 mi WNW 15.0 mph 25.3 mph N/A   Mostly Cloudy
6:15 PM 24.3 °F 10.0 °F 11.5 °F 58% 29.66 in 10.0 mi WNW 19.6 mph 24.2 mph N/A   Mostly Cloudy
6:35 PM 23.4 °F 9.6 °F 12.6 °F 63% 29.67 in 10.0 mi WNW 17.3 mph 25.3 mph N/A   Overcast
6:55 PM 22.3 °F 7.4 °F 11.3 °F 63% 29.67 in 10.0 mi WNW 19.6 mph 26.5 mph N/A   Overcast
7:15 PM 21.4 °F 9.1 °F 10.9 °F 64% 29.68 in 10.0 mi WNW 12.7 mph 25.3 mph N/A   Overcast
7:35 PM 20.1 °F 6.4 °F 10.4 °F 66% 29.70 in 10.0 mi WNW 15.0 mph 20.7 mph N/A   Overcast
7:55 PM 19.0 °F 6.1 °F 9.5 °F 66% 29.71 in 10.0 mi WNW 12.7 mph - N/A   Overcast
8:15 PM 18.0 °F 4.2 °F 9.3 °F 69% 29.72 in 10.0 mi WNW 13.8 mph 21.9 mph N/A   Overcast
8:35 PM 16.7 °F 1.5 °F 7.7 °F 68% 29.73 in 10.0 mi WNW 16.1 mph 23.0 mph N/A   Overcast
8:55 PM 15.6 °F 1.2 °F 6.8 °F 68% 29.74 in 10.0 mi WNW 13.8 mph 21.9 mph N/A   Mostly Cloudy
9:15 PM 14.7 °F 2.9 °F 6.4 °F 70% 29.75 in 10.0 mi West 9.2 mph 23.0 mph N/A   Scattered Clouds
9:35 PM 14.0 °F -0.8 °F 5.9 °F 70% 29.75 in 10.0 mi WNW 13.8 mph 18.4 mph N/A   Mostly Cloudy
9:55 PM 14.0 °F -0.2 °F 5.9 °F 70% 29.76 in 10.0 mi West 12.7 mph 16.1 mph N/A   Overcast
10:15 PM 13.5 °F -0.9 °F 5.2 °F 70% 29.77 in 10.0 mi West 12.7 mph 21.9 mph N/A   Mostly Cloudy
10:35 PM 13.1 °F -2.0 °F 5.0 °F 70% 29.78 in 10.0 mi WNW 13.8 mph 21.9 mph N/A   Overcast
10:55 PM 12.7 °F -1.1 °F 4.8 °F 71% 29.78 in 10.0 mi WNW 11.5 mph 19.6 mph N/A   Overcast
11:15 PM 12.2 °F -3.1 °F 4.5 °F 71% 29.79 in 10.0 mi WNW 13.8 mph 18.4 mph N/A   Overcast
11:35 PM 12.0 °F -2.0 °F 4.1 °F 71% 29.79 in 10.0 mi WNW 11.5 mph - N/A   Overcast
11:55 PM 11.8 °F -2.3 °F 3.7 °F 70% 29.79 in 10.0 mi WNW 11.5 mph 21.9 mph N/A   Overcast